Regional Weather Roundup
Issued by NWS

Home | Current Version | Previous Version | Graphics & Text | Print | Product List | Glossary On
Versions: 1 2 3 4 5 6 7 8 9 10 11 12 13 14 15 16 17 18 19 20 21 22 23 24 25 26 27 28 29 30 31 32 33 34 35 36 37 38 39 40 41 42 43 44 45 46 47 48 49 50
000
ASUS45 KABQ 271401
RWRNM
WEATHER ROUNDUP FOR NEW MEXICO
NATIONAL WEATHER SERVICE ALBUQUERQUE NM
800 AM MDT WED AUG 27 2014

NOTE: "FAIR" MEANS FEW OR NO CLOUDS BELOW 12,000 FEET AGL WITH NO
       SIGNIFICANT WEATHER OR OBSTRUCTIONS TO VISION.

      THIS PRODUCT IS RELEASED AS TWO VERSIONS.  ONE VERSION NEAR
      THE TOP OF THE HOUR CONTAINING PRELIMINARY DATA FROM ALBUQUERQUE
      AND OTHER STATIONS.  A FINAL VERSION WITH ADDITIONAL DATA IS
      ISSUED ABOUT 10 MINUTES AFTER THE HOUR.

NMZ501-503-504-510>518-271500-
NORTHWEST PLATEAU/NORTHCENTRAL MOUNTAINS

CITY           SKY/WX    TMP DP  RH WIND       PRES   REMARKS
FARMINGTON     SUNNY     56  54  93 CALM      30.32R
LOS ALAMOS     SUNNY     56  56 100 N3        30.38S
SANTA FE       PTSUNNY   58  56  93 S3        30.34R
TAOS           CLOUDY    55  52  88 SE3       30.39S
ANGEL FIRE     FAIR      53  47  81 SW7       30.43S

$$
NMZ402-403-502-505>509-271500-
WESTCENTRAL MOUNTAINS/SOUTHWEST MOUNTAINS

CITY           SKY/WX    TMP DP  RH WIND       PRES   REMARKS
GALLUP         CLOUDY    49  49 100 CALM      30.37R FOG
SILVER CITY    PTSUNNY   64  57  77 W3        30.30R

$$
NMZ407-409-411-412-271500-
SOUTHERN DESERTS

CITY           SKY/WX    TMP DP  RH WIND       PRES   REMARKS
LORDSBURG      FAIR      63  61  94 CALM      30.22R
DEMING         MOSUNNY   69  61  75 E9        30.21S
LAS CRUCES     MOSUNNY   67  63  84 NW5       30.23R
HOLLOMAN AFB   MOSUNNY   65  65 100 W8        30.19R
ALAMOGORDO     CLOUDY    68  63  83 W3        30.20S
T OR C         MOSUNNY   63  60  90 N8        30.25R

$$
NMZ519>523-271500-
CENTRAL VALLEYS/CENTRAL HIGHLANDS

CITY           SKY/WX    TMP DP  RH WIND       PRES   REMARKS
ALBUQUERQUE    MOSUNNY   62  57  83 W3        30.31R
DOUBLE EAGLE   MOSUNNY   57  55  94 CALM      30.34R
CLINES CORNERS CLOUDY    56  55  97 NW9       30.35R
BELEN          FAIR      61  58  90 N5        30.30S
SOCORRO        CLOUDY    61  60  97 NW3       30.28S

$$
NMZ524>526-539-540-271500-
SOUTHCENTRAL MOUNTAINS

CITY           SKY/WX    TMP DP  RH WIND       PRES   REMARKS
RUIDOSO        NOT AVBL

$$
NMZ527>531-271500-
NORTHEAST HIGHLANDS/NORTHEAST PLAINS

CITY           SKY/WX    TMP DP  RH WIND       PRES   REMARKS
LAS VEGAS      MOSUNNY   58  55  90 S12       30.32S
RATON          CLOUDY    60  57  89 S12       30.26R
CLAYTON        MOSUNNY   66  61  84 SE14      30.22F

$$
NMZ532>537-271500-
EASTCENTRAL PLAINS

CITY           SKY/WX    TMP DP  RH WIND       PRES   REMARKS
TUCUMCARI        N/A     70  65  84 S3        30.19R
CANNON AFB     PTSUNNY   68  61  77 CALM      30.23R
CLOVIS AIRPORT   N/A     68  61  77 N3        30.24S

$$
NMZ028-029-538-271500-
SOUTHEAST PLAINS

CITY           SKY/WX    TMP DP  RH WIND       PRES   REMARKS
ROSWELL        CLOUDY    70  62  76 N9        30.18R
CARLSBAD       PTSUNNY   76  63  64 NW10      30.15R
HOBBS          MOSUNNY   72  59  64 SE5       30.17R


$$



USA.gov is the U.S. government's official web portal to all federal, state and local government web resources and services.